Powrót do katalogu

STARLINK-3946

AktywnyŁącznośćVLEO
NORAD 52693·PAYLOAD·🇺🇸 United States

Wystrzelony May 18, 2022 z Cape Canaveral Space Force Station

Loading…

Następne Przeloty (najbliższe 24 godziny)

TLE

ŚwieżeSource: CelesTrak SupGP

Epoka: Sep 14, 2026, 22:13 UTC

1 52693C 22053AP  26257.92618056  .00168050  00000+0  67956-2 0  2577
2 52693  53.1600  12.8561 0001243  79.0490   5.3337 15.24112232    19

Śledź STARLINK-3946 w czasie rzeczywistym z AllMySat

Download on the App Store